| time (UTC) | temp F | wind direction | speed knots | gust knots | rain 1hr in | rain 24hr in | rain mn in | humidity % | barometer mb |
| 20260507070506 | 49 | 263 | 1.7 | 6.1 | 0.00 | 0.16 | 0.00 | 87 | 1013.2 |
| 20260507070010 | 49 | 287 | 1.7 | 7.0 | 0.00 | 0.16 | 0.00 | 87 | 1013.2 |
| 20260507064506 | 49 | 203 | 2.6 | 8.7 | 0.00 | 0.16 | 0.00 | 90 | 1012.9 |
| 20260507064005 | 49 | 285 | 3.5 | 4.3 | 0.00 | 0.16 | 0.00 | 90 | 1013.2 |
| 20260507061006 | 48 | 280 | 0.9 | 2.6 | 0.00 | 0.16 | 0.00 | 91 | 1012.5 |
| 20260507060505 | 48 | 295 | 5.2 | 11.3 | 0.00 | 0.16 | 0.00 | 91 | 1012.3 |
| 20260507060006 | 48 | 285 | 6.1 | 13.0 | 0.00 | 0.16 | 0.00 | 90 | 1012.5 |
| 20260507054507 | 48 | 275 | 4.3 | 13.0 | 0.00 | 0.16 | 0.00 | 90 | 1012.5 |
| 20260507053506 | 48 | 326 | 5.2 | 7.0 | 0.00 | 0.16 | 0.00 | 91 | 1012.5 |
| 20260507053007 | 48 | 287 | 2.6 | 6.1 | 0.00 | 0.16 | 0.00 | 91 | 1012.2 |
| 20260507051506 | 48 | 285 | 0.9 | 2.6 | 0.00 | 0.16 | 0.00 | 92 | 1012.1 |
| 20260507051005 | 48 | 271 | 0.0 | 2.6 | 0.00 | 0.16 | 0.00 | 92 | 1011.9 |
| 20260507050506 | 48 | 271 | 1.7 | 4.3 | 0.00 | 0.16 | 0.00 | 91 | 1012.2 |
| 20260507044005 | 48 | 278 | 4.3 | 7.0 | 0.00 | 0.16 | 0.00 | 90 | 1011.9 |
| 20260507043506 | 48 | 283 | 2.6 | 4.3 | 0.00 | 0.16 | 0.00 | 90 | 1011.6 |
| 20260507041505 | 48 | 285 | 1.7 | 2.6 | 0.00 | 0.16 | 0.00 | 89 | 1011.5 |
| 20260507041006 | 48 | 293 | 1.7 | 4.3 | 0.00 | 0.16 | 0.00 | 89 | 1011.5 |
| 20260507040505 | 48 | 284 | 4.3 | 6.1 | 0.00 | 0.16 | 0.00 | 90 | 1011.5 |
| 20260507034505 | 49 | 276 | 2.6 | 6.1 | 0.00 | 0.16 | 0.00 | 90 | 1011.2 |
| 20260507033506 | 48 | 238 | 0.9 | 2.6 | 0.00 | 0.16 | 0.00 | 91 | 1011.2 |
| 20260507031505 | 49 | 274 | 0.0 | 1.7 | 0.00 | 0.16 | 0.00 | 90 | 1010.8 |
| 20260507031005 | 48 | 277 | 0.9 | 2.6 | 0.00 | 0.16 | 0.00 | 90 | 1011.0 |
| 20260507030505 | 49 | 281 | 0.0 | 0.0 | 0.00 | 0.16 | 0.00 | 91 | 1010.8 |
| 20260507030005 | 49 | 270 | 0.0 | 4.3 | 0.00 | 0.16 | 0.00 | 90 | 1011.0 |
| 20260507024505 | 49 | 282 | 0.9 | 4.3 | 0.00 | 0.16 | 0.00 | 90 | 1011.2 |
| 20260507024005 | 48 | 285 | 0.9 | 2.6 | 0.00 | 0.16 | 0.00 | 90 | 1010.8 |
| 20260507023506 | 49 | 284 | 1.7 | 2.6 | 0.00 | 0.16 | 0.00 | 91 | 1010.8 |
| 20260507023005 | 49 | 282 | 0.9 | 2.6 | 0.00 | 0.16 | 0.00 | 91 | 1010.8 |
| 20260507021506 | 48 | 278 | 0.0 | 4.3 | 0.00 | 0.16 | 0.00 | 91 | 1010.5 |
| 20260507021005 | 48 | 270 | 0.9 | 1.7 | 0.00 | 0.16 | 0.00 | 91 | 1010.5 |
| 20260507020505 | 49 | 262 | 0.0 | 0.0 | 0.00 | 0.16 | 0.00 | 92 | 1010.5 |
| 20260507014505 | 49 | 281 | 1.7 | 2.6 | 0.00 | 0.16 | 0.00 | 91 | 1010.4 |
| 20260507014005 | 49 | 290 | 1.7 | 2.6 | 0.00 | 0.16 | 0.00 | 91 | 1010.2 |
| 20260507013005 | 49 | 275 | 0.0 | 1.7 | 0.00 | 0.16 | 0.00 | 91 | 1010.4 |
| 20260507011505 | 49 | 273 | 0.0 | 1.7 | 0.00 | 0.16 | 0.00 | 91 | 1010.5 |
| 20260507010505 | 49 | 260 | 0.9 | 1.7 | 0.00 | 0.16 | 0.00 | 91 | 1010.5 |
| 20260507010005 | 49 | 234 | 0.9 | 1.7 | 0.00 | 0.16 | 0.00 | 91 | 1010.2 |
| 20260507004005 | 49 | 277 | 1.7 | 2.6 | 0.00 | 0.16 | 0.00 | 90 | 1010.2 |
| 20260507003004 | 49 | 285 | 0.9 | 2.6 | 0.00 | 0.16 | 0.00 | 90 | 1010.0 |
| 20260507001505 | 49 | 275 | 0.9 | 2.6 | 0.00 | 0.16 | 0.00 | 90 | 1010.2 |
| 20260507001005 | 49 | 285 | 1.7 | 2.6 | 0.00 | 0.16 | 0.00 | 90 | 1010.2 |
| 20260507000505 | 49 | 273 | 1.7 | 6.1 | 0.00 | 0.16 | 0.00 | 90 | 1010.2 |
| 20260507000006 | 49 | 279 | 2.6 | 8.7 | 0.00 | 0.16 | 0.00 | 90 | 1010.2 |
| 20260506234004 | 49 | 275 | 0.9 | 4.3 | 0.00 | 0.16 | 0.00 | 90 | 1009.8 |
| 20260506233505 | 49 | 265 | 1.7 | 4.3 | 0.00 | 0.16 | 0.00 | 90 | 1009.9 |
| 20260506233006 | 49 | 276 | 1.7 | 4.3 | 0.00 | 0.16 | 0.00 | 90 | 1010.2 |
| 20260506231505 | 49 | 273 | 3.5 | 7.0 | 0.00 | 0.16 | 0.00 | 90 | 1009.8 |
| 20260506230504 | 49 | 278 | 1.7 | 4.3 | 0.00 | 0.16 | 0.00 | 90 | 1009.8 |
| 20260506230005 | 49 | 288 | 1.7 | 7.0 | 0.00 | 0.16 | 0.00 | 90 | 1009.8 |
| 20260506224504 | 49 | 278 | 0.9 | 4.3 | 0.08 | 0.16 | 0.00 | 91 | 1009.8 |
| 20260506224005 | 49 | 284 | 0.9 | 2.6 | 0.08 | 0.16 | 0.00 | 91 | 1009.8 |
| 20260506223505 | 49 | 280 | 0.9 | 2.6 | 0.08 | 0.16 | 0.00 | 91 | 1009.6 |
| 20260506223005 | 49 | 287 | 1.7 | 7.0 | 0.08 | 0.16 | 0.00 | 91 | 1009.8 |
| 20260506221505 | 49 | 279 | 3.5 | 6.1 | 0.08 | 0.16 | 0.00 | 90 | 1009.5 |
| 20260506221004 | 49 | 293 | 2.6 | 4.3 | 0.08 | 0.16 | 0.00 | 90 | 1009.5 |
| 20260506220505 | 49 | 280 | 2.6 | 6.1 | 0.08 | 0.16 | 0.00 | 90 | 1009.5 |
| 20260506214505 | 49 | 279 | 2.6 | 8.7 | 0.00 | 0.08 | 0.08 | 90 | 1009.2 |
| 20260506214005 | 49 | 308 | 3.5 | 6.1 | 0.00 | 0.08 | 0.08 | 90 | 1009.5 |
| 20260506213005 | 49 | 288 | 4.3 | 7.0 | 0.00 | 0.08 | 0.08 | 90 | 1009.1 |
| 20260506211506 | 49 | 295 | 1.7 | 2.6 | 0.00 | 0.08 | 0.08 | 90 | 1009.1 |
| 20260506211005 | 49 | 304 | 1.7 | 11.3 | 0.00 | 0.08 | 0.08 | 90 | 1009.1 |
| 20260506210504 | 49 | 292 | 2.6 | 7.0 | 0.00 | 0.08 | 0.08 | 89 | 1009.1 |
| 20260506204504 | 50 | 283 | 1.7 | 4.3 | 0.00 | 0.08 | 0.08 | 90 | 1009.1 |
| 20260506204005 | 50 | 285 | 1.7 | 6.1 | 0.00 | 0.08 | 0.08 | 90 | 1008.9 |
| 20260506203505 | 50 | 317 | 2.6 | 6.1 | 0.00 | 0.08 | 0.08 | 91 | 1008.8 |
| 20260506203005 | 50 | 278 | 2.6 | 8.7 | 0.00 | 0.08 | 0.08 | 91 | 1009.0 |
| 20260506201505 | 50 | 288 | 4.3 | 6.1 | 0.00 | 0.08 | 0.08 | 91 | 1008.8 |
| 20260506201005 | 50 | 340 | 1.7 | 4.3 | 0.00 | 0.08 | 0.08 | 91 | 1009.0 |
| 20260506200504 | 50 | 317 | 2.6 | 6.1 | 0.00 | 0.08 | 0.08 | 91 | 1008.8 |
| 20260506200004 | 50 | 321 | 2.6 | 7.0 | 0.00 | 0.08 | 0.08 | 91 | 1008.8 |
| 20260506194505 | 51 | 304 | 2.6 | 8.7 | 0.00 | 0.08 | 0.08 | 91 | 1008.5 |
| 20260506194005 | 51 | 311 | 3.5 | 8.7 | 0.00 | 0.08 | 0.08 | 90 | 1008.6 |
| 20260506193505 | 51 | 355 | 5.2 | 8.7 | 0.00 | 0.08 | 0.08 | 90 | 1008.8 |
| 20260506193005 | 51 | 329 | 2.6 | 8.7 | 0.00 | 0.08 | 0.08 | 90 | 1008.5 |
| 20260506191005 | 52 | 327 | 1.7 | 2.6 | 0.00 | 0.08 | 0.08 | 89 | 1008.1 |
| 20260506190504 | 52 | 309 | 0.0 | 1.7 | 0.00 | 0.08 | 0.08 | 89 | 1007.9 |
| 20260506190005 | 52 | 286 | 0.0 | 4.3 | 0.00 | 0.08 | 0.08 | 89 | 1007.8 |
| 20260506184505 | 52 | 276 | 2.6 | 4.3 | 0.00 | 0.08 | 0.08 | 89 | 1007.8 |
| 20260506184004 | 52 | 289 | 1.7 | 2.6 | 0.00 | 0.08 | 0.08 | 89 | 1007.5 |
| 20260506183005 | 52 | 289 | 3.5 | 8.7 | 0.00 | 0.08 | 0.08 | 88 | 1007.5 |
| 20260506181505 | 53 | 278 | 3.5 | 7.0 | 0.00 | 0.08 | 0.08 | 88 | 1007.4 |
| 20260506181005 | 53 | 269 | 5.2 | 7.0 | 0.00 | 0.08 | 0.08 | 88 | 1007.1 |
| 20260506180505 | 53 | 315 | 2.6 | 7.0 | 0.00 | 0.08 | 0.08 | 88 | 1007.1 |
| 20260506180006 | 53 | 273 | 5.2 | 7.0 | 0.00 | 0.08 | 0.08 | 89 | 1007.1 |
| 20260506173505 | 53 | 297 | 2.6 | 4.3 | 0.00 | 0.08 | 0.08 | 88 | 1007.1 |
| 20260506173004 | 53 | 281 | 2.6 | 6.1 | 0.00 | 0.08 | 0.08 | 89 | 1007.1 |
| 20260506171505 | 53 | 286 | 2.6 | 4.3 | 0.00 | 0.08 | 0.08 | 89 | 1006.8 |
| 20260506171004 | 53 | 291 | 3.5 | 6.1 | 0.00 | 0.08 | 0.08 | 89 | 1006.8 |
| 20260506170504 | 53 | 274 | 4.3 | 7.0 | 0.00 | 0.08 | 0.08 | 89 | 1006.8 |
| 20260506170004 | 53 | 277 | 2.6 | 11.3 | 0.00 | 0.08 | 0.08 | 89 | 1006.8 |
| 20260506164505 | 53 | 291 | 6.1 | 11.3 | 0.00 | 0.08 | 0.08 | 89 | 1006.8 |
| 20260506164004 | 53 | 282 | 4.3 | 8.7 | 0.00 | 0.08 | 0.08 | 89 | 1006.8 |
| 20260506163505 | 54 | 276 | 5.2 | 8.7 | 0.00 | 0.08 | 0.08 | 89 | 1006.8 |
| 20260506163004 | 54 | 280 | 2.6 | 7.0 | 0.00 | 0.08 | 0.08 | 90 | 1006.8 |
| 20260506161505 | 54 | 294 | 6.1 | 8.7 | 0.00 | 0.08 | 0.08 | 89 | 1006.8 |
| 20260506160504 | 55 | 282 | 5.2 | 8.7 | 0.01 | 0.09 | 0.08 | 89 | 1006.8 |
| 20260506160004 | 55 | 317 | 4.3 | 8.7 | 0.01 | 0.09 | 0.08 | 90 | 1006.4 |
| 20260506154504 | 55 | 301 | 6.1 | 6.1 | 0.01 | 0.09 | 0.08 | 92 | 1006.8 |
| 20260506153505 | 56 | 285 | 0.9 | 2.6 | 0.01 | 0.09 | 0.08 | 91 | 1006.4 |
| 20260506151004 | 56 | 283 | 5.2 | 11.3 | 0.06 | 0.11 | 0.08 | 90 | 1006.4 |
| 20260506150505 | 56 | 276 | 4.3 | 7.0 | 0.05 | 0.10 | 0.07 | 91 | 1006.1 |
| 20260506150005 | 56 | 292 | 2.6 | 11.3 | 0.05 | 0.11 | 0.07 | 90 | 1006.1 |
| 20260506144504 | 57 | 293 | 5.2 | 11.3 | 0.05 | 0.11 | 0.07 | 89 | 1005.8 |
| 20260506144004 | 57 | 312 | 7.0 | 12.2 | 0.05 | 0.12 | 0.07 | 90 | 1005.8 |
| 20260506143504 | 56 | 288 | 6.1 | 14.8 | 0.05 | 0.12 | 0.07 | 90 | 1005.8 |
| 20260506143004 | 57 | 286 | 8.7 | 12.2 | 0.05 | 0.12 | 0.07 | 92 | 1005.8 |
| 20260506141004 | 58 | 273 | 1.7 | 6.1 | 0.00 | 0.08 | 0.02 | 88 | 1005.4 |
| 20260506140504 | 58 | 281 | 4.3 | 6.1 | 0.00 | 0.08 | 0.02 | 87 | 1005.1 |
| 20260506140004 | 59 | 286 | 4.3 | 6.1 | 0.00 | 0.08 | 0.02 | 86 | 1005.4 |
| 20260506134504 | 59 | 227 | 0.0 | 2.6 | 0.01 | 0.10 | 0.02 | 87 | 1005.4 |
| 20260506134005 | 58 | 279 | 0.9 | 2.6 | 0.01 | 0.10 | 0.02 | 87 | 1005.7 |
| 20260506133504 | 58 | 286 | 0.9 | 4.3 | 0.01 | 0.10 | 0.02 | 88 | 1005.8 |
| 20260506133004 | 57 | 279 | 0.0 | 7.0 | 0.02 | 0.10 | 0.02 | 88 | 1005.8 |
| 20260506131504 | 58 | 261 | 1.7 | 8.7 | 0.02 | 0.11 | 0.02 | 89 | 1005.8 |
| 20260506131004 | 58 | 271 | 2.6 | 6.1 | 0.02 | 0.11 | 0.02 | 89 | 1005.4 |
| 20260506130505 | 57 | 283 | 1.7 | 2.6 | 0.02 | 0.11 | 0.02 | 89 | 1005.5 |
| 20260506130005 | 57 | 349 | 1.7 | 7.0 | 0.02 | 0.11 | 0.02 | 90 | 1005.4 |
| 20260506124504 | 58 | 16 | 1.7 | 2.6 | 0.01 | 0.10 | 0.01 | 87 | 1005.1 |
| 20260506124004 | 59 | 307 | 0.0 | 1.7 | 0.01 | 0.10 | 0.01 | 86 | 1005.4 |
| 20260506123004 | 60 | 282 | 2.6 | 6.1 | 0.00 | 0.09 | 0.00 | 83 | 1005.1 |
| 20260506121505 | 61 | 269 | 0.9 | 1.7 | 0.00 | 0.10 | 0.00 | 81 | 1005.1 |
| 20260506120504 | 60 | 270 | 0.0 | 4.3 | 0.00 | 0.10 | 0.00 | 86 | 1005.4 |
| 20260506120004 | 60 | 298 | 2.6 | 6.1 | 0.00 | 0.10 | 0.00 | 84 | 1005.4 |
| 20260506114504 | 61 | 202 | 3.5 | 7.0 | 0.00 | 0.10 | 0.00 | 83 | 1005.2 |
| 20260506114005 | 60 | 295 | 0.9 | 2.6 | 0.00 | 0.10 | 0.00 | 83 | 1005.4 |
| 20260506113504 | 60 | 287 | 1.7 | 4.3 | 0.00 | 0.10 | 0.00 | 84 | 1005.4 |
| 20260506113004 | 60 | 293 | 0.9 | 6.1 | 0.00 | 0.10 | 0.00 | 82 | 1005.4 |
| 20260506111504 | 60 | 49 | 1.7 | 6.1 | 0.00 | 0.10 | 0.00 | 84 | 1005.2 |
| 20260506111004 | 59 | 58 | 4.3 | 8.7 | 0.00 | 0.10 | 0.00 | 86 | 1005.4 |
| 20260506110504 | 58 | 300 | 2.6 | 4.3 | 0.00 | 0.10 | 0.00 | 87 | 1005.4 |
| 20260506104504 | 59 | 244 | 0.9 | 1.7 | 0.00 | 0.10 | 0.00 | 86 | 1005.6 |
| 20260506104004 | 60 | 242 | 0.0 | 1.7 | 0.00 | 0.10 | 0.00 | 85 | 1005.7 |
| 20260506103505 | 60 | 250 | 0.0 | 2.6 | 0.00 | 0.10 | 0.00 | 83 | 1005.8 |
| 20260506103004 | 61 | 49 | 0.0 | 7.0 | 0.00 | 0.10 | 0.00 | 83 | 1005.4 |
| 20260506101504 | 59 | 309 | 1.7 | 8.7 | 0.00 | 0.10 | 0.00 | 84 | 1005.5 |
| 20260506101004 | 58 | 275 | 3.5 | 8.7 | 0.00 | 0.10 | 0.00 | 85 | 1005.4 |
| 20260506100503 | 59 | 298 | 2.6 | 6.1 | 0.00 | 0.10 | 0.00 | 85 | 1005.7 |
| 20260506100004 | 59 | 267 | 1.7 | 8.7 | 0.00 | 0.10 | 0.00 | 85 | 1005.4 |
| 20260506094004 | 59 | 299 | 0.9 | 1.7 | 0.00 | 0.10 | 0.00 | 86 | 1005.8 |
| 20260506093504 | 58 | 263 | 0.0 | 6.1 | 0.00 | 0.10 | 0.00 | 87 | 1005.5 |
| 20260506093004 | 57 | 295 | 2.6 | 6.1 | 0.00 | 0.10 | 0.00 | 86 | 1005.7 |
| 20260506091507 | 56 | 75 | 1.7 | 6.1 | 0.00 | 0.10 | 0.00 | 89 | 1005.7 |
| 20260506091006 | 56 | 179 | 1.7 | 6.1 | 0.00 | 0.10 | 0.00 | 90 | 1005.6 |
| 20260506090505 | 56 | 151 | 0.9 | 2.6 | 0.00 | 0.10 | 0.00 | 90 | 1005.4 |
| 20260506090006 | 56 | 206 | 1.7 | 4.3 | 0.00 | 0.10 | 0.00 | 88 | 1005.7 |
| 20260506084505 | 57 | 241 | 2.6 | 4.3 | 0.00 | 0.10 | 0.00 | 87 | 1005.7 |
| 20260506084005 | 57 | 277 | 0.9 | 2.6 | 0.00 | 0.10 | 0.00 | 87 | 1005.5 |
| 20260506083507 | 56 | 298 | 1.7 | 6.1 | 0.00 | 0.10 | 0.00 | 88 | 1005.4 |
| 20260506083006 | 57 | 337 | 3.5 | 8.7 | 0.00 | 0.10 | 0.00 | 87 | 1005.4 |
| 20260506081006 | 58 | 258 | 1.7 | 4.3 | 0.00 | 0.10 | 0.00 | 86 | 1005.1 |
| 20260506080506 | 57 | 212 | 2.6 | 4.3 | 0.00 | 0.10 | 0.00 | 86 | 1005.2 |
| 20260506073006 | 56 | 288 | 1.7 | 4.3 | 0.00 | 0.10 | 0.00 | 89 | 1005.4 |
| 20260506071506 | 56 | 272 | 0.0 | 2.6 | 0.00 | 0.10 | 0.00 | 89 | 1005.1 |
| 20260506071005 | 56 | 271 | 0.0 | 4.3 | 0.00 | 0.10 | 0.00 | 88 | 1005.1 |